Tracking 30306 objects as of 25-Apr-2025
HD Live streaming from Space Station
objects crossing your sky now

BEIDOU 3M5

Track BEIDOU 3M5 now!
BEIDOU 3M5 is classified as:


NORAD ID: 43207
Int'l Code: 2018-018A
Perigee: 21,514.2 km
Apogee: 21,556.2 km
Inclination: 56.3 °
Period: 773.2 minutes
Semi major axis: 27906 km
RCS: Unknown
Launch date: February 12, 2018
Source: People's Republic of China (PRC)
Launch site: Xichang Space Center, China (XSC)
Your satellite tracking list
Your tracking list is empty




NASA's NSSDC Master Catalog

Two Line Element Set (TLE):
1 43207U 18018A   25113.83955790  .00000022  00000-0  00000-0 0  9996
2 43207  56.2840  77.0158 0007521 351.6780   8.2894  1.86231050 48937
Source of the keplerian elements: AFSPC